Simultaneous Nadir Overpasses (SNOs) Predictions

Prediction of SNOs between GOES-16 and METOP-C Satellite Orbit:

Table of predicted SNOs for the next 14.0 days since TLE Epoch: 5/12/2024
Index Date Time (GOES-16) GOES-16 Lat,Lon METOP-C Lat,Lon Distance(km) Time Diff (sec)
1 05/13/2024 14:44:41 0.05, -75.21 0.88, -78.93 424.03 80
2 05/14/2024 14:26:42 0.04, -75.22 -0.25, -73.94 146.24 80
3 05/16/2024 02:45:41 -0.04, -75.23 -0.80, -78.52 375.13 80
4 05/17/2024 02:22:21 -0.04, -75.24 0.34, -73.53 195.74 80
5 05/18/2024 14:41:12 0.04, -75.27 0.69, -78.07 320.76 80
6 05/19/2024 14:23:12 0.04, -75.28 -0.46, -73.08 250.71 80
7 05/21/2024 02:42:12 -0.03, -75.31 -0.55, -77.67 269.20 80
8 05/22/2024 02:18:51 -0.03, -75.32 0.56, -72.67 302.40 80
9 05/23/2024 14:37:41 0.03, -75.35 0.42, -77.23 213.28 80
10 05/24/2024 14:19:41 0.02, -75.37 -0.71, -72.23 358.51 80
11 05/26/2024 02:38:39 -0.02, -75.39 -0.33, -76.81 161.03 80
